Welcome to the New NWS' Forecast!
Most changes are behind the scenes, but click here for differences you might notice.

Regional Weather Roundup (RWR)

Issued by National Weather Service (NWS)

                            
000
ASUS46 KSEW 160210
RWRWA 

WASHINGTON REGIONAL WEATHER ROUNDUP
NATIONAL WEATHER SERVICE SEATTLE WA
600 PM PST THU NOV 15 2018

NOTE:"FAIR" INDICATES FEW OR NO CLOUDS BELOW 12,000 FEET WITH NO 
SIGNIFICANT WEATHER AND/OR OBSTRUCTIONS TO VISIBILITY.

WAZ507-509-555>559-160300-
SEATTLE, TACOMA, EVERETT, AND VICINITY
  
CITY           SKY/WX    TMP DP  RH WIND       PRES   REMARKS
EVERETT        CLOUDY    52  45  77 SE9       30.22F                  
BOEING FIELD   CLOUDY    55  45  68 S7        30.23F                  
RENTON         CLOUDY    55  45  68 SE3       30.23F                  
SEATAC AIRPORT CLOUDY    54  45  71 S8        30.23F                  
JBLM-MCCHORD   PTCLDY    49  49  99 S8        30.24F                  
PUYALLUP       CLOUDY    52  48  87 CALM      30.26R                  
BREMERTON      MOCLDY    50  47  89 S9        30.22F                  
JBLM-FT LEWIS  NOT AVBL                                               
TACOMA NARROWS PTCLDY    51  46  83 S8        30.23F                  
$$
 
WAZ001-503-506-510-514-515-160300-
NORTH INTERIOR
  
CITY           SKY/WX    TMP DP  RH WIND       PRES   REMARKS
BELLINGHAM     LGT RAIN  51  47  86 S14       30.16F                  
FRIDAY HARBOR  CLOUDY    51  46  83 SE12      30.18F                  
EASTSOUND      DRIZZLE   52  48  87 S14       30.15F                  
PORT ANGELES   CLOUDY    50  45  83 CALM      30.19F                  
EDIZ HOOK      CLOUDY    49  47  92 CALM      30.18S                  
PORT TOWNSEND  CLOUDY    52  48  87 CALM      30.19F                  
NAS WHIDBEY    CLOUDY    54  46  74 SE17      30.22F                  
ARLINGTON      CLOUDY    51  48  89 SE7       30.22F                  
BURLINGTON     CLOUDY    52  50  93 CALM      30.20F                  
$$
 
WAZ020-022-039-040-504-511-512-160300-
SOUTHWEST INTERIOR
  
CITY           SKY/WX    TMP DP  RH WIND       PRES   REMARKS
SHELTON        PTCLDY    51  47  86 SW13      30.22F                  
OLYMPIA        MOCLDY    53  47  79 SW9       30.25F                  
CHEHALIS       CLOUDY    52  50  93 CALM      30.27S                  
KELSO          CLOUDY    50  47  89 NW3       30.29R FOG              
VANCOUVER      CLEAR     49  46  90 SE3       30.27S                  
SCAPPOOSE, OR  MOCLDY    49  45  86 W3        30.26S                  
PORTLAND, OR   PTCLDY    47  45  93 E5        30.28S                  
$$
 
WAZ021-516-517-160300-
WASHINGTON COAST
  
CITY           SKY/WX    TMP DP  RH WIND       PRES   REMARKS
FORKS          LGT RAIN  51  50  96 S7        30.22S FOG              
HOQUIAM        CLOUDY    53  51  93 S5        30.26F FOG              
ASTORIA, OR    CLOUDY    48  47  96 CALM      30.27F                  
$$
 
WAZ019-023-024-040-567>569-160300-
CASCADE MOUNTAINS AND COLUMBIA GORGE
  
CITY           SKY/WX    TMP DP  RH WIND       PRES   REMARKS
STAMPEDE PASS  NOT AVBL                                               
TROUTDALE, OR  MOCLDY    45  44  97 E3        30.27F FOG              
HOOD RIVER, OR CLEAR     41  39  93 S5        30.22S                  
THE DALLES, OR PTCLDY    41  38  89 CALM      30.21F                  
$$

WAZ026-027-041>044-520-521-160300-
EAST SLOPES
  
CITY           SKY/WX    TMP DP  RH WIND       PRES   REMARKS
OMAK           CLOUDY    37  34  89 SE7       30.15F                  
WENATCHEE      MOCLDY    35  33  92 E6        30.16F                  
ELLENSBURG     PTCLDY    50  36  58 NW12      30.15F                  
YAKIMA         PTCLDY    35  30  82 W6        30.19F HAZE             
SUNNYSIDE ARPT PTCLDY    35  33  92 NE3       30.21  FOG              
YAKIMA TC      FAIR      41  32  70 CALM      30.16F                  
$$

WAZ028-034-035-160300-
COLUMBIA BASIN
  
CITY           SKY/WX    TMP DP  RH WIND       PRES   REMARKS
EPHRATA        CLOUDY    37  33  85 CALM      30.16F                  
MOSES LAKE     CLOUDY    42  33  70 S3        30.17F                  
PASCO          PTCLDY    34  31  88 N5        30.22F                  
RICHLAND ARPT  PTCLDY    35  34  94 NW5       30.22  FOG              
HERMISTON, OR  CLEAR     38  34  85 CALM      30.19F                  
$$

WAZ036>038-160300-
NORTHEAST WASHINGTON
  
CITY           SKY/WX    TMP DP  RH WIND       PRES   REMARKS
SPOKANE GEIGER LGT RAIN  37  34  89 CALM      30.15F FOG              
SPOKANE FELTS  CLOUDY    39  36  89 CALM      30.17F FOG              
FAIRCHILD AFB  LGT RAIN  36  36 100 CALM      30.14F                  
COEURDALENE,ID LGT RAIN  41  38  89 SW3       30.16F                  
DEER PARK      FOG       35  35 100 W5        30.16F VSB 1/4          
$$

WAZ029>033-160300-
SOUTHEAST WASHINGTON
  
CITY           SKY/WX    TMP DP  RH WIND       PRES   REMARKS
PULLMAN        PTCLDY    39  34  82 CALM      30.19F                  
LEWISTON, ID   CLEAR     46  35  65 S5        30.18F                  
WALLA WALLA    PTCLDY    42  36  79 E6        30.18F                  
PENDLETON, OR  CLEAR     48  39  71 SE5       30.18F                  
$$